Home > Weather > Potosi > Past weeks

Flag for Bolivia Past Weather in Potosi, Bolivia — Yesterday and Last 2 Weeks

Now
50 °F

Clear.


Feels Like: 49 °F
Forecast: 29 / 57 °F
Wind: 3 mph from South

Location: Cochabamba Airport

Current Time: Aug 27, 2016 at 4:32:16 AM

Latest Report: Aug 27, 2016 at 4:00 AM


Visibility: N/A

Pressure: 30.18 "Hg (18.64 "Hg at 3993m altitude)

Humidity: 58%

Dew Point: 36 °F

Location of PotosiLocation

Past Weather in Potosi — Graph

°F

Potosi Temperature Yesterday

Maximum temperature yesterday: 84 °F (at 4:00 PM)
Minimum temperature yesterday: 46 °F (at 7:00 AM)
Average temperature yesterday: 65 °F

High & Low Weather Summary for the Past Weeks

 TemperatureHumidityPressure
High84 °F (Aug 17, 3:00 PM)76% (Aug 12, 3:00 AM)30.51 "Hg (Aug 12, 3:00 AM)
Low37 °F (Aug 23, 6:00 AM)5% (Aug 15, 5:00 PM)30.07 "Hg (Aug 14, 4:00 PM)
Average63 °F34%30.25 "Hg
* Reported Aug 12 3:00 AM — Aug 27 3:00 AM, Potosi, Weather by CustomWeather, © 2016

Note: Actual official high and low records may vary slightly from our data, if they occured in-between our weather recording intervals... More about our weather records

Advertising

Potosi Weather History for the Previous 24 Hours

Scroll right to see more
 ConditionsComfort  
Time TempWeatherWind HumidityBarometerVisibility
3:00 AM
Sat, Aug 27
54 °FClear.No wind51%30.21 "HgN/A
2:00 AM54 °FClear.No wind58%30.21 "HgN/A
1:00 AM54 °FClear.No wind58%30.21 "HgN/A
12:00 AM59 °FClear.No wind45%30.21 "HgN/A
11:00 PM
Fri, Aug 26
63 °FPassing clouds.3 mph39%30.21 "HgN/A
10:00 PM64 °FPassing clouds.7 mph37%30.18 "HgN/A
9:00 PM66 °FPassing clouds.7 mph30%30.18 "HgN/A
8:00 PM66 °FPassing clouds.8 mph30%30.15 "HgN/A
7:00 PM68 °FPassing clouds.7 mph28%30.15 "HgN/A
6:00 PM72 °FScattered clouds.18 mph29%30.12 "Hg6 mi
5:00 PM77 °FScattered clouds.9 mph18%30.09 "Hg6 mi
4:00 PM84 °FPassing clouds.12 mph11%30.07 "Hg6 mi
3:00 PM82 °FPassing clouds.3 mph9%30.09 "Hg6 mi
2:00 PM82 °FPassing clouds.No wind13%30.12 "Hg6 mi
1:00 PM81 °FPassing clouds.No wind17%30.21 "Hg6 mi
12:00 PM77 °FPassing clouds.No wind21%30.24 "Hg6 mi
11:00 AM73 °FClear.No wind27%30.27 "Hg5 mi
10:00 AM68 °FClear.No wind35%30.30 "Hg4 mi
9:00 AM63 °FClear.No wind45%30.30 "Hg4 mi
8:00 AM55 °FClear.No wind51%30.30 "Hg2 mi
7:00 AM46 °FClear.No wind71%30.30 "Hg4 mi
6:00 AM48 °FPassing clouds.No wind66%30.27 "HgN/A
5:00 AM48 °FPassing clouds.No wind62%30.24 "HgN/A
4:00 AM50 °FPassing clouds.No wind62%30.24 "HgN/A
Weather by CustomWeather, © 2016

See weather overviewHow to use our weather pages